Location: State Line Observation Field
(36.5320°N, 77.5360°W)
Time: 03:12:18
(UTC-05:00)

Envisat - Visible Passes

Search period start: 19 November 2019 00:00
Search period end: 29 November 2019 00:00
Orbit: 764 x 766 km, 98.1° (Epoch: 18 November)

Date Brightness Start Highest point End Pass type
(mag) Time Alt. Az. Time Alt. Az. Time Alt. Az.
19 Nov 5.7 06:05:16 10° NE 06:09:17 23° E 06:13:16 10° SSE visible
19 Nov 4.6 18:55:49 10° SSW 19:00:24 34° W 19:05:02 10° NNW visible
20 Nov 3.0 18:18:29 10° S 18:23:34 82° W 18:28:40 10° NNW visible
21 Nov 3.3 17:42:08 10° SE 17:46:54 43° ENE 17:51:41 10° N visible
21 Nov 5.6 19:22:31 10° SW 19:26:04 19° W 19:29:39 10° NW visible
22 Nov 6.0 05:54:30 10° NE 05:57:55 18° E 06:01:20 10° SE visible
22 Nov 4.1 18:44:16 10° S 18:49:06 44° W 18:53:57 10° NNW visible
23 Nov 2.9 18:07:14 10° SSE 18:12:18 78° ENE 18:17:23 10° N visible
24 Nov 5.1 06:19:03 10° NNE 06:23:36 32° E 06:28:07 10° SSE visible
24 Nov 3.6 17:31:11 10° SE 17:35:42 34° ENE 17:40:14 10° N visible
24 Nov 5.2 19:10:38 10° SSW 19:14:43 24° W 19:18:50 10° NW visible
25 Nov 6.1 05:43:59 10° ENE 05:46:33 14° E 05:49:06 10° ESE visible
25 Nov 3.6 18:32:49 10° S 18:37:47 57° W 18:42:48 10° NNW visible
26 Nov 3.0 17:56:04 10° SSE 18:01:03 61° ENE 18:06:04 10° N visible
26 Nov 6.0 19:38:04 10° WSW 19:40:25 13° W 19:42:49 10° WNW visible
27 Nov 5.5 06:08:04 10° NE 06:12:15 25° E 06:16:25 10° SSE visible
27 Nov 3.9 17:20:20 10° SE 17:24:31 27° ENE 17:28:42 10° NNE visible
27 Nov 4.8 18:58:54 10° SSW 19:03:22 31° W 19:07:52 10° NW visible
28 Nov 6.5 05:34:24 10° E 05:35:09 10° E 05:35:53 10° E visible
28 Nov 3.2 18:21:27 10° S 18:26:30 75° WSW 18:31:35 10° NNW visible
